Location: Grossmotten
(48.5500°N, 15.3833°E)
Time: 04:48:40
(UTC+00:00)

ALOS - Pass Details

Date: 15 November 2019
Orbit: 683 x 685 km, 97.8° (Epoch: 14 December)

Event Time Altitude Azimuth Distance (km) Brightness Sun altitude
Rises 03:43:04 0° 22° (NNE) 3,060 5.9 -23.5°
Reaches altitude 10° 03:45:33 10° 33° (NNE) 2,139 5.2 -23.1°
Maximum altitude 03:49:42 31° 95° (E) 1,207 4.2 -22.4°
Drops below altitude 10° 03:53:48 10° 157° (SSE) 2,124 5.1 -21.7°
Sets 03:56:16 0° 168° (SSE) 3,035 5.8 -21.3°
